STARLINK-35457

Last updated on Fri Dec 12 2025 00:02:05 GMT+0000 (Coordinated Universal Time)

1 66433U 25259M 25345.58335648 .00101673 00000+0 24169-2 0 9997 2 66433 43.0000 54.4439 0001232 273.0939 226.0720 15.40599856 6097
UTC large
Height (km)
Speed (km/s)
/
Latitude / Longitude
Inclination (degrees)
Orbital Period (minutes)
Azimuth
Elevation
Range (km)
Doppler Factor

Next 0 passes for location: London (51.5072 / 0.1276)

Sorry there are no passes over London.